Location: Allison Elementary School
(34.0784°N, 117.7317°W)
Time: 17:22:39
(UTC+00:00)

Cosmos 2278 - Pass Details

Date: 15 November 2019
Orbit: 838 x 854 km, 71.1° (Epoch: 11 December)

Event Time Altitude Azimuth Distance (km) Brightness Sun altitude
Rises 02:11:31 0° 199° (SSW) 3,381 7.3 -17.5°
Reaches altitude 10° 02:13:56 10° 199° (SSW) 2,452 6.5 -17.9°
Maximum altitude 02:19:34 90° 119° (ESE) 850 3.6 -19.1°
Enters shadow 02:24:39 13° 21° (NNE) 2,238 5.6 -20.1°
